Regional Weather Roundup
Issued by NWS Tiyan, Guam

Home | Current Version | Previous Version | Text Only | Print | Product List | Glossary On
Versions: 1 2 3 4 5 6 7 8 9 10 11 12 13 14 15 16 17 18 19 20 21 22 23 24 25 26 27 28 29 30 31 32 33 34 35 36 37 38 39 40 41 42 43 44 45 46 47 48 49 50
000
ASGM40 PGUM 300312
RWRGUM
WEATHER ROUNDUP FOR THE MARIANAS
NATIONAL WEATHER SERVICE TIYAN GU
100 PM CHST SAT AUG 30 2014

GUZ001>004-300400-
MARIANA ISLANDS-

CITY           SKY/WX    TMP DP  RH WIND       PRES   REMARKS
GUAM AIRPORT   SUNNY     84  79  84 E7        29.76F HX  96
ANDERSEN AFB   MOSUNNY   82  75  78 NE7       29.76F
ROTA AIRPORT   CLOUDY    82  77  83 E7        29.76F HX  91
TINIAN AP      PTSUNNY   79  77  94 NE5       29.75F
SAIPAN AP      MOSUNNY   82  79  89 CALM      29.76F HX  93

$$




USA.gov is the U.S. government's official web portal to all federal, state and local government web resources and services.